Flag for France Weather past 2 weeks in Nancy, France

Now
48 °F

Clear.


Feels Like: 46 °F
Forecast: 45 / 64 °F
Wind: 6 mph from Southwest

Location: Nancy / Ochey

Current Time: Sep 5, 2015 at 1:06:34 AM

Latest Report: Sep 5, 2015 at 12:30 AM


Visibility: 10 mi

Pressure: 30.07 "Hg

Humidity: 87%

Dew point: 45 °F

Location of NancyLocation

Historic Weather in Nancy — Graph

°F

Nancy temperature yesterday

Maximum temperature yesterday: 63 °F (at 12:30 PM)
Minimum temperature yesterday: 48 °F (at 2:00 AM)
Average temperature yesterday: 55 °F

Past Weeks' High & Low Weather Summary

 TemperatureHumidityPressure
High95 °F (Aug 30, 4:30 PM)100% (Aug 24, 12:30 AM)30.24 "Hg (Aug 24, 12:30 AM)
Low48 °F (Sep 4, 2:00 AM)14% (Aug 30, 5:00 PM)29.65 "Hg (Aug 24, 6:30 AM)
Average67 °F64%29.99 "Hg
* Reported Aug 21 12:30 AM — Sep 5 12:30 AM, Nancy, Weather by CustomWeather, © 2015

Note: Actual official high and low records may vary slightly from our data, if they occured in-between our weather recording intervals... More about our weather records

Advertising

Nancy weather history for previous 24 hours

 ConditionsComfort  
Time TempWeatherWind HumidityBarometerVisibility
12:30 AM
Sat, Sep 5
48 °FClear.6 mph87%30.07 "Hg10 mi
12:00 AM48 °FClear.5 mph87%30.07 "Hg10 mi
11:30 PM
Fri, Sep 4
50 °FClear.5 mph82%30.07 "Hg10 mi
11:00 PM50 °FClear.5 mph82%30.04 "Hg10 mi
10:30 PM50 °FClear.3 mph82%30.04 "Hg10 mi
10:00 PM52 °FPassing clouds.2 mph77%30.04 "HgN/A
9:30 PM52 °FClear.2 mph72%30.04 "Hg10 mi
9:00 PM54 °FSunny.6 mph63%30.04 "Hg10 mi
8:30 PM55 °FSunny.5 mph59%30.04 "Hg10 mi
8:00 PM59 °FSunny.7 mph51%30.04 "Hg10 mi
7:30 PM59 °FSunny.7 mph51%30.04 "Hg10 mi
7:00 PM61 °FPassing clouds.8 mph48%30.01 "HgN/A
6:30 PM61 °FPassing clouds.8 mph48%30.01 "HgN/A
6:00 PM63 °FMostly cloudy.9 mph45%30.01 "HgN/A
5:30 PM63 °FSunny.9 mph45%30.01 "Hg10 mi
5:00 PM61 °FMore clouds than sun.7 mph48%30.01 "HgN/A
4:30 PM63 °FOvercast.7 mph49%30.01 "HgN/A
4:00 PM63 °FPassing clouds.8 mph42%30.04 "HgN/A
3:30 PM63 °FPassing clouds.9 mph42%30.04 "HgN/A
3:00 PM63 °FPassing clouds.9 mph39%30.04 "HgN/A
2:30 PM63 °FPassing clouds.9 mph42%30.04 "HgN/A
2:00 PM61 °FOvercast.8 mph42%30.07 "HgN/A
1:30 PM61 °FMostly cloudy.10 mph48%30.04 "HgN/A
1:00 PM61 °FPartly sunny.8 mph48%30.07 "HgN/A
12:30 PM63 °FMore clouds than sun.8 mph49%30.07 "HgN/A
12:00 PM59 °FPassing clouds.6 mph59%30.07 "HgN/A
11:30 AM57 °FPassing clouds.7 mph63%30.07 "HgN/A
11:00 AM57 °FSunny.6 mph72%30.07 "Hg10 mi
10:30 AM55 °FPassing clouds.6 mph77%30.07 "HgN/A
10:00 AM54 °FPassing clouds.3 mph82%30.04 "HgN/A
9:30 AM52 °FPassing clouds.3 mph88%30.04 "HgN/A
9:00 AM52 °FSunny.3 mph88%30.04 "Hg10 mi
8:30 AM50 °FSunny.3 mph94%30.04 "Hg10 mi
8:00 AM50 °FSunny.2 mph94%30.04 "Hg10 mi
7:30 AM50 °FClear.3 mph88%30.04 "Hg10 mi
7:00 AM48 °FClear.3 mph94%30.04 "Hg10 mi
6:30 AM48 °FClear.2 mph94%30.04 "Hg10 mi
6:00 AM48 °FClear.1 mph94%30.04 "Hg10 mi
5:30 AM48 °FClear.2 mph94%30.04 "Hg10 mi
5:00 AM48 °FOvercast.3 mph94%30.04 "HgN/A
4:30 AM48 °FPassing clouds.3 mph87%30.04 "HgN/A
4:00 AM48 °FClear.3 mph87%30.01 "Hg10 mi
3:30 AM48 °FClear.6 mph87%30.04 "Hg10 mi
3:00 AM48 °FClear.3 mph87%30.04 "Hg10 mi
2:30 AM50 °FClear.3 mph82%30.04 "Hg10 mi
2:00 AM48 °FClear.2 mph87%30.04 "Hg10 mi
1:30 AM50 °FClear.2 mph82%30.04 "Hg10 mi
1:00 AM50 °FClear.3 mph82%30.04 "Hg10 mi
Weather by CustomWeather, © 2015

See weather overviewHow to use our weather pages